Погода в Варваринском

Россия / Республика Бурятия     54°18′58″N   112°21′44″E
темп.,
°C
ветер,
м/с
пор.,
м/с
влажн.,
%
обл.,
%
осадки,
мм/ч
давл.,
гПа
погр.,
м
14 июня, пн
пн1423:00+8сз1195100 0.3 100426
02:00+7зсз22946 0.3 100537
05:00+5зсз239111 0.0 100654
08:00+10зсз456654 0.0 1004782
11:00+12зсз455071 0.1 10031675
14:00+13зсз4546100 0.1 10021696
17:00+13сз564768 0.0 10021549
20:00+10сз476499 0.0 1003478
15 июня, вт
вт1523:00+5зсз228897 0.0 100637
02:00+4сз11922 0.0 100710
05:00+4ссз22894 0.0 100728
08:00+11ссз34565 0.0 10051012
11:00+13сз344799 0.1 10051782
14:00+14ссз334684 0.3 10041871
17:00+13ссз345647 0.6 10041013
20:00+10сз36795 1.7 1006168
16 июня, ср
ср1623:00+5зсз119192 0.0 100812
02:00+4зсз219492 0.0 100815
05:00+5сз129588 0.0 100845
08:00+9сз227774 0.1 1007439
11:00+13в2365100 2.1 10051230
14:00+12з327199 4.7 1005722
17:00+9зсз348286 1.6 1007311
20:00+7зсз238576 2.3 1007216
17 июня, чт
чт1723:00+4сз2295100 0.0 100931
02:00+6сз239497 0.1 100871
05:00+6сз2391100 0.0 100779
08:00+11сз3770100 0.0 1005638
11:00+16ссз61044100 0.0 10032099
14:00+17с81137100 0.0 10012402
17:00+15с81042100 0.0 10022195
20:00+12с61247100 0.0 10031211
18 июня, пт
пт1823:00+9ссз41258100 0.0 1003563
02:00+6сз3686100 0.0 1003166
05:00+5сз3688100 0.0 1003203
08:00+10сз4762100 0.0 1000605
11:00+16с6841100 0.0 9981945
14:00+15ссв5746100 0.0 9971893
17:00+15ссв5846100 0.0 9971796
20:00+11всв2469100 0.0 999156